When you browse on this site, cookies collect data to enhance your experience and personalize the content and advertising you see.
Visit our Privacy Policy to learn more. By continuing to use the site, you agree to this use of cookies and data.
  • In Hungary
  • List of Countries
  • For 7 days
  • Water Temperature
  • Weather Map
  • News
  • Weather Widgets
  • user-avatar
    Login

    Hourly Weather Skorohodovo

    Today, 24 January, Friday

    Time Temperature Precipitation Wind Pressure Humidity
    00:00 -5°C° 0 mm 3 mps 745 mmHg 67%
    01:00 -4°C° 0 mm 3 mps 744 mmHg 70%
    02:00 -5°C° 0 mm 3 mps 744 mmHg 79%
    03:00 -4°C° 0.2 mm 4 mps 743 mmHg 84%
    04:00 -4°C° 0.2 mm 4 mps 743 mmHg 88%
    05:00 -5°C° 0.2 mm 5 mps 742 mmHg 93%
    06:00 -5°C° 0.1 mm 5 mps 741 mmHg 93%
    07:00 -5°C° 0.1 mm 5 mps 741 mmHg 93%
    08:00 -5°C° 0.1 mm 6 mps 741 mmHg 94%
    09:00 -4°C° 0.1 mm 6 mps 740 mmHg 93%
    10:00 -4°C° 0.1 mm 6 mps 740 mmHg 93%
    11:00 -3°C° 0.1 mm 6 mps 740 mmHg 93%
    12:00 -2°C° 0.2 mm 6 mps 739 mmHg 94%
    13:00 -2°C° 0.2 mm 6 mps 739 mmHg 96%
    14:00 -1°C° 0.2 mm 6 mps 738 mmHg 97%
    15:00 -1°C° 0 mm 6 mps 738 mmHg 96%
    16:00 -1°C° 0 mm 6 mps 737 mmHg 94%
    17:00 -1°C° 0 mm 7 mps 737 mmHg 93%
    18:00 -1°C° 0.1 mm 6 mps 737 mmHg 94%
    19:00 -1°C° 0.1 mm 6 mps 737 mmHg 95%
    20:00 -1°C° 0.1 mm 6 mps 737 mmHg 95%
    21:00 -1°C° 0.1 mm 6 mps 737 mmHg 95%
    22:00 -1°C° 0.1 mm 6 mps 737 mmHg 94%
    23:00 +1°C° 0.1 mm 6 mps 737 mmHg 93%

    Tomorrow, 25 January, Saturday

    Time Temperature Precipitation Wind Pressure Humidity
    00:00 +1°C° 0.1 mm 6 mps 737 mmHg 93%
    01:00 +1°C° 0.1 mm 6 mps 737 mmHg 93%
    02:00 +1°C° 0.1 mm 6 mps 736 mmHg 93%
    03:00 -1°C° 0 mm 6 mps 736 mmHg 93%
    04:00 0°C° 0 mm 5 mps 736 mmHg 93%
    05:00 0°C° 0 mm 5 mps 736 mmHg 92%
    06:00 0°C° 0 mm 5 mps 736 mmHg 92%
    07:00 0°C° 0 mm 5 mps 736 mmHg 92%
    08:00 0°C° 0 mm 5 mps 735 mmHg 92%
    09:00 -1°C° 0.1 mm 6 mps 735 mmHg 92%
    10:00 +1°C° 0.1 mm 6 mps 735 mmHg 91%
    11:00 +1°C° 0.1 mm 6 mps 735 mmHg 90%
    12:00 0°C° 0.4 mm 7 mps 735 mmHg 91%
    13:00 0°C° 0.4 mm 7 mps 735 mmHg 91%
    14:00 0°C° 0.4 mm 7 mps 735 mmHg 92%
    15:00 -1°C° 0 mm 7 mps 735 mmHg 88%
    16:00 -1°C° 0 mm 6 mps 735 mmHg 84%
    17:00 -2°C° 0 mm 6 mps 735 mmHg 80%
    18:00 -1°C° 0 mm 5 mps 736 mmHg 82%
    19:00 -2°C° 0 mm 5 mps 736 mmHg 84%
    20:00 -2°C° 0 mm 4 mps 737 mmHg 85%
    21:00 -2°C° 0.1 mm 4 mps 738 mmHg 85%
    22:00 -2°C° 0.1 mm 4 mps 738 mmHg 84%
    23:00 -2°C° 0.1 mm 5 mps 739 mmHg 84%

    Day after tomorrow, 26 January, Sunday

    Time Temperature Precipitation Wind Pressure Humidity
    00:00 -4°C° 0 mm 5 mps 739 mmHg 82%
    01:00 -4°C° 0 mm 5 mps 740 mmHg 80%
    02:00 -4°C° 0 mm 5 mps 740 mmHg 78%
    03:00 -4°C° 0 mm 4 mps 741 mmHg 78%
    04:00 -4°C° 0 mm 4 mps 741 mmHg 79%
    05:00 -4°C° 0 mm 4 mps 742 mmHg 80%
    06:00 -4°C° 0 mm 3 mps 742 mmHg 81%
    07:00 -4°C° 0 mm 3 mps 743 mmHg 82%
    08:00 -4°C° 0 mm 3 mps 743 mmHg 83%
    09:00 -4°C° 0 mm 3 mps 744 mmHg 80%
    10:00 -2°C° 0 mm 3 mps 744 mmHg 78%
    11:00 -1°C° 0 mm 3 mps 745 mmHg 76%
    12:00 -1°C° 0 mm 4 mps 744 mmHg 76%
    13:00 -1°C° 0 mm 5 mps 744 mmHg 76%
    14:00 0°C° 0 mm 5 mps 744 mmHg 76%
    15:00 -1°C° 0 mm 5 mps 744 mmHg 79%
    16:00 -1°C° 0 mm 5 mps 744 mmHg 83%
    17:00 -1°C° 0 mm 5 mps 743 mmHg 87%
    18:00 -1°C° 0 mm 5 mps 744 mmHg 86%
    19:00 -1°C° 0 mm 5 mps 744 mmHg 86%
    20:00 -1°C° 0 mm 5 mps 744 mmHg 85%
    21:00 -1°C° 0 mm 5 mps 744 mmHg 87%
    22:00 -1°C° 0 mm 4 mps 744 mmHg 88%
    23:00 -1°C° 0 mm 4 mps 744 mmHg 90%

    27 January, Monday

    Time Temperature Precipitation Wind Pressure Humidity
    00:00 -1°C° 0 mm 4 mps 744 mmHg 90%
    01:00 -1°C° 0 mm 4 mps 744 mmHg 90%
    02:00 -1°C° 0 mm 4 mps 744 mmHg 91%
    03:00 -1°C° 0 mm 4 mps 744 mmHg 91%
    04:00 -1°C° 0 mm 4 mps 744 mmHg 91%
    05:00 -1°C° 0 mm 4 mps 744 mmHg 91%
    06:00 -2°C° 0 mm 4 mps 744 mmHg 92%
    07:00 -2°C° 0 mm 4 mps 744 mmHg 92%
    08:00 -1°C° 0 mm 3 mps 744 mmHg 93%
    09:00 0°C° 0 mm 3 mps 744 mmHg 92%
    10:00 0°C° 0 mm 3 mps 744 mmHg 91%
    11:00 0°C° 0 mm 3 mps 745 mmHg 91%
    12:00 0°C° 0 mm 3 mps 744 mmHg 91%
    13:00 0°C° 0 mm 3 mps 744 mmHg 92%
    14:00 0°C° 0 mm 3 mps 744 mmHg 93%
    15:00 0°C° 0 mm 3 mps 744 mmHg 94%
    16:00 0°C° 0 mm 3 mps 744 mmHg 96%
    17:00 0°C° 0 mm 3 mps 744 mmHg 97%
    18:00 +1°C° 0 mm 2 mps 744 mmHg 97%
    19:00 -1°C° 0 mm 2 mps 744 mmHg 98%
    20:00 -1°C° 0 mm 2 mps 744 mmHg 98%
    21:00 -1°C° 0.1 mm 2 mps 744 mmHg 98%
    22:00 -1°C° 0.1 mm 2 mps 744 mmHg 98%
    23:00 -1°C° 0.1 mm 2 mps 743 mmHg 98%

    28 January, Tuesday

    Time Temperature Precipitation Wind Pressure Humidity
    00:00 -1°C° 0.2 mm 2 mps 743 mmHg 98%
    01:00 -1°C° 0.2 mm 2 mps 743 mmHg 98%
    02:00 -1°C° 0.2 mm 2 mps 743 mmHg 98%
    03:00 -1°C° 0.1 mm 2 mps 742 mmHg 98%
    04:00 +1°C° 0.1 mm 2 mps 742 mmHg 98%
    05:00 +1°C° 0.1 mm 2 mps 742 mmHg 98%
    06:00 +1°C° 0 mm 2 mps 742 mmHg 98%
    07:00 +1°C° 0 mm 2 mps 742 mmHg 98%
    08:00 +2°C° 0 mm 1 mps 742 mmHg 98%
    09:00 +1°C° 0 mm 2 mps 742 mmHg 98%
    10:00 +1°C° 0 mm 2 mps 742 mmHg 98%
    11:00 +1°C° 0 mm 2 mps 742 mmHg 98%
    12:00 +1°C° 0 mm 2 mps 742 mmHg 98%
    13:00 +1°C° 0 mm 2 mps 741 mmHg 98%
    14:00 +1°C° 0 mm 2 mps 741 mmHg 98%
    15:00 +1°C° 0 mm 2 mps 741 mmHg 98%
    16:00 +1°C° 0 mm 2 mps 741 mmHg 98%
    17:00 +1°C° 0 mm 2 mps 741 mmHg 98%
    18:00 +1°C° 0 mm 2 mps 741 mmHg 98%
    19:00 +1°C° 0 mm 2 mps 741 mmHg 98%
    20:00 +1°C° 0 mm 2 mps 741 mmHg 98%
    21:00 +1°C° 0 mm 2 mps 741 mmHg 98%
    22:00 +1°C° 0 mm 2 mps 741 mmHg 98%
    23:00 +1°C° 0 mm 2 mps 741 mmHg 98%

    29 January, Wednesday

    Time Temperature Precipitation Wind Pressure Humidity
    00:00 0°C° 0 mm 3 mps 741 mmHg 98%
    01:00 0°C° 0 mm 3 mps 741 mmHg 97%
    02:00 0°C° 0 mm 3 mps 741 mmHg 97%
    03:00 0°C° 0 mm 3 mps 741 mmHg 97%
    04:00 0°C° 0 mm 3 mps 740 mmHg 97%
    05:00 -1°C° 0 mm 3 mps 740 mmHg 96%
    06:00 -2°C° 0 mm 4 mps 740 mmHg 96%
    07:00 -2°C° 0 mm 4 mps 739 mmHg 95%
    08:00 -3°C° 0 mm 4 mps 739 mmHg 94%
    09:00 -2°C° 0 mm 4 mps 739 mmHg 94%
    10:00 -1°C° 0 mm 4 mps 739 mmHg 93%
    11:00 -1°C° 0 mm 4 mps 739 mmHg 93%
    12:00 -1°C° 0 mm 4 mps 738 mmHg 94%
    13:00 -1°C° 0 mm 4 mps 738 mmHg 95%
    14:00 -1°C° 0 mm 4 mps 737 mmHg 97%
    15:00 -1°C° 0.1 mm 4 mps 737 mmHg 97%
    16:00 -1°C° 0.1 mm 5 mps 737 mmHg 97%
    17:00 -1°C° 0.1 mm 5 mps 737 mmHg 97%
    18:00 -1°C° 0 mm 5 mps 736 mmHg 96%
    19:00 -1°C° 0 mm 5 mps 736 mmHg 94%
    20:00 -2°C° 0 mm 5 mps 735 mmHg 93%
    21:00 -2°C° 0.2 mm 5 mps 735 mmHg 94%
    22:00 -2°C° 0.2 mm 4 mps 734 mmHg 95%
    23:00 -2°C° 0.2 mm 4 mps 734 mmHg 96%
    Show more